When you browse on this site, cookies collect data to enhance your experience and personalize the content and advertising you see.
Visit our Privacy Policy to learn more. By continuing to use the site, you agree to this use of cookies and data.
  • In Hungary
  • List of Countries
  • For 7 days
  • Water Temperature
  • Weather Map
  • News
  • Weather Widgets
  • user-avatar
    Login

    Hourly Weather Sestu

    Today, 21 November, Thursday

    Time Temperature Precipitation Wind Pressure Humidity
    00:00 +13°C° 0 mm 1 mps 754 mmHg 74%
    01:00 +13°C° 0 mm 1 mps 754 mmHg 74%
    02:00 +13°C° 0 mm 1 mps 753 mmHg 74%
    03:00 +13°C° 0 mm 1 mps 753 mmHg 74%
    04:00 +12°C° 0 mm 1 mps 753 mmHg 74%
    05:00 +12°C° 0 mm 1 mps 753 mmHg 75%
    06:00 +12°C° 0 mm 1 mps 753 mmHg 76%
    07:00 +12°C° 0 mm 1 mps 752 mmHg 77%
    08:00 +13°C° 0 mm 1 mps 753 mmHg 72%
    09:00 +14°C° 0 mm 0 mps 753 mmHg 67%
    10:00 +15°C° 0 mm 0 mps 753 mmHg 62%
    11:00 +16°C° 0.1 mm 1 mps 753 mmHg 63%
    12:00 +16°C° 0.1 mm 2 mps 753 mmHg 64%
    13:00 +17°C° 0.1 mm 3 mps 753 mmHg 66%
    14:00 +16°C° 0.2 mm 3 mps 753 mmHg 68%
    15:00 +16°C° 0.2 mm 3 mps 753 mmHg 70%
    16:00 +16°C° 0.2 mm 3 mps 753 mmHg 72%
    17:00 +15°C° 0.4 mm 2 mps 753 mmHg 78%
    18:00 +14°C° 0.4 mm 2 mps 753 mmHg 83%
    19:00 +13°C° 0.4 mm 1 mps 753 mmHg 88%
    20:00 +13°C° 0.3 mm 1 mps 753 mmHg 89%
    21:00 +13°C° 0.3 mm 1 mps 754 mmHg 89%
    22:00 +13°C° 0.3 mm 2 mps 754 mmHg 90%
    23:00 +13°C° 0.1 mm 1 mps 754 mmHg 90%

    Tomorrow, 22 November, Friday

    Time Temperature Precipitation Wind Pressure Humidity
    00:00 +12°C° 0.1 mm 1 mps 754 mmHg 91%
    01:00 +12°C° 0.1 mm 1 mps 754 mmHg 91%
    02:00 +12°C° 0 mm 1 mps 753 mmHg 91%
    03:00 +12°C° 0 mm 1 mps 753 mmHg 91%
    04:00 +12°C° 0 mm 1 mps 753 mmHg 92%
    05:00 +12°C° 0 mm 1 mps 753 mmHg 91%
    06:00 +12°C° 0 mm 1 mps 753 mmHg 91%
    07:00 +10°C° 0 mm 0 mps 753 mmHg 91%
    08:00 +13°C° 0 mm 1 mps 753 mmHg 86%
    09:00 +14°C° 0 mm 1 mps 754 mmHg 81%
    10:00 +16°C° 0 mm 1 mps 754 mmHg 77%
    11:00 +17°C° 0.1 mm 2 mps 754 mmHg 74%
    12:00 +17°C° 0.1 mm 3 mps 753 mmHg 72%
    13:00 +18°C° 0.1 mm 3 mps 753 mmHg 70%
    14:00 +18°C° 0.1 mm 3 mps 752 mmHg 70%
    15:00 +18°C° 0.1 mm 3 mps 752 mmHg 71%
    16:00 +17°C° 0.1 mm 2 mps 752 mmHg 71%
    17:00 +16°C° 0 mm 2 mps 752 mmHg 75%
    18:00 +15°C° 0 mm 2 mps 752 mmHg 78%
    19:00 +14°C° 0 mm 2 mps 751 mmHg 82%
    20:00 +14°C° 0 mm 2 mps 751 mmHg 81%
    21:00 +14°C° 0 mm 2 mps 751 mmHg 81%
    22:00 +14°C° 0 mm 2 mps 751 mmHg 80%
    23:00 +14°C° 0 mm 2 mps 751 mmHg 79%

    Day after tomorrow, 23 November, Saturday

    Time Temperature Precipitation Wind Pressure Humidity
    00:00 +15°C° 0 mm 2 mps 750 mmHg 78%
    01:00 +15°C° 0 mm 2 mps 750 mmHg 76%
    02:00 +15°C° 0 mm 2 mps 749 mmHg 77%
    03:00 +15°C° 0 mm 2 mps 749 mmHg 78%
    04:00 +15°C° 0 mm 2 mps 748 mmHg 79%
    05:00 +14°C° 0 mm 3 mps 748 mmHg 79%
    06:00 +14°C° 0 mm 3 mps 747 mmHg 78%
    07:00 +14°C° 0 mm 3 mps 747 mmHg 78%
    08:00 +15°C° 0 mm 4 mps 747 mmHg 74%
    09:00 +17°C° 0 mm 4 mps 747 mmHg 69%
    10:00 +17°C° 0 mm 5 mps 747 mmHg 65%
    11:00 +17°C° 0.1 mm 5 mps 747 mmHg 67%
    12:00 +16°C° 0.1 mm 5 mps 747 mmHg 70%
    13:00 +16°C° 0.1 mm 5 mps 746 mmHg 73%
    14:00 +15°C° 0.3 mm 5 mps 746 mmHg 75%
    15:00 +15°C° 0.3 mm 6 mps 746 mmHg 78%
    16:00 +15°C° 0.3 mm 6 mps 746 mmHg 80%
    17:00 +15°C° 1.1 mm 6 mps 746 mmHg 82%
    18:00 +14°C° 1.1 mm 6 mps 746 mmHg 84%
    19:00 +14°C° 1.1 mm 5 mps 747 mmHg 85%
    20:00 +14°C° 1.1 mm 5 mps 747 mmHg 85%
    21:00 +14°C° 1.1 mm 4 mps 747 mmHg 86%
    22:00 +13°C° 1.1 mm 3 mps 747 mmHg 86%
    23:00 +13°C° 0.7 mm 3 mps 747 mmHg 87%

    24 November, Sunday

    Time Temperature Precipitation Wind Pressure Humidity
    00:00 +14°C° 0.7 mm 2 mps 746 mmHg 89%
    01:00 +13°C° 0.7 mm 2 mps 746 mmHg 91%
    02:00 +13°C° 0.2 mm 2 mps 746 mmHg 90%
    03:00 +13°C° 0.2 mm 1 mps 746 mmHg 90%
    04:00 +13°C° 0.2 mm 1 mps 745 mmHg 89%
    05:00 +13°C° 0 mm 1 mps 745 mmHg 89%
    06:00 +13°C° 0 mm 2 mps 745 mmHg 89%
    07:00 +12°C° 0 mm 2 mps 745 mmHg 89%
    08:00 +13°C° 0 mm 2 mps 746 mmHg 85%
    09:00 +14°C° 0 mm 2 mps 747 mmHg 82%
    10:00 +14°C° 0 mm 3 mps 747 mmHg 78%
    11:00 +14°C° 0.1 mm 3 mps 747 mmHg 79%
    12:00 +14°C° 0.1 mm 3 mps 747 mmHg 80%
    13:00 +14°C° 0.1 mm 3 mps 747 mmHg 81%
    14:00 +14°C° 0.2 mm 3 mps 748 mmHg 82%
    15:00 +14°C° 0.2 mm 3 mps 748 mmHg 83%
    16:00 +14°C° 0.2 mm 3 mps 748 mmHg 83%
    17:00 +14°C° 0.2 mm 3 mps 749 mmHg 85%
    18:00 +14°C° 0.2 mm 3 mps 749 mmHg 87%
    19:00 +14°C° 0.2 mm 4 mps 750 mmHg 88%
    20:00 +13°C° 0.1 mm 4 mps 750 mmHg 89%
    21:00 +13°C° 0.1 mm 4 mps 751 mmHg 89%
    22:00 +13°C° 0.1 mm 3 mps 751 mmHg 90%
    23:00 +12°C° 0 mm 4 mps 752 mmHg 90%

    25 November, Monday

    Time Temperature Precipitation Wind Pressure Humidity
    00:00 +12°C° 0 mm 4 mps 752 mmHg 90%
    01:00 +12°C° 0 mm 4 mps 752 mmHg 90%
    02:00 +12°C° 0 mm 4 mps 752 mmHg 88%
    03:00 +12°C° 0 mm 4 mps 753 mmHg 86%
    04:00 +12°C° 0 mm 3 mps 753 mmHg 85%
    05:00 +12°C° 0 mm 3 mps 753 mmHg 83%
    06:00 +12°C° 0 mm 3 mps 754 mmHg 81%
    07:00 +12°C° 0 mm 3 mps 754 mmHg 79%
    08:00 +13°C° 0 mm 3 mps 755 mmHg 78%
    09:00 +14°C° 0 mm 3 mps 755 mmHg 77%
    10:00 +17°C° 0 mm 3 mps 756 mmHg 76%
    11:00 +17°C° 0 mm 3 mps 756 mmHg 75%
    12:00 +18°C° 0 mm 4 mps 756 mmHg 73%
    13:00 +19°C° 0 mm 4 mps 757 mmHg 72%
    14:00 +18°C° 0 mm 4 mps 757 mmHg 74%
    15:00 +18°C° 0 mm 4 mps 757 mmHg 76%
    16:00 +18°C° 0 mm 4 mps 757 mmHg 78%
    17:00 +15°C° 0 mm 4 mps 757 mmHg 83%
    18:00 +14°C° 0 mm 4 mps 758 mmHg 87%
    19:00 +13°C° 0 mm 4 mps 758 mmHg 92%
    20:00 +13°C° 0 mm 3 mps 758 mmHg 92%
    21:00 +12°C° 0 mm 3 mps 758 mmHg 92%
    22:00 +12°C° 0 mm 3 mps 759 mmHg 92%
    23:00 +12°C° 0 mm 3 mps 759 mmHg 92%

    26 November, Tuesday

    Time Temperature Precipitation Wind Pressure Humidity
    00:00 +12°C° 0 mm 3 mps 759 mmHg 92%
    01:00 +11°C° 0 mm 3 mps 759 mmHg 91%
    02:00 +11°C° 0 mm 3 mps 758 mmHg 91%
    03:00 +11°C° 0 mm 3 mps 758 mmHg 91%
    04:00 +11°C° 0 mm 3 mps 758 mmHg 91%
    05:00 +11°C° 0 mm 3 mps 758 mmHg 91%
    06:00 +11°C° 0 mm 3 mps 758 mmHg 91%
    07:00 +11°C° 0 mm 3 mps 758 mmHg 92%
    08:00 +12°C° 0 mm 3 mps 759 mmHg 87%
    09:00 +14°C° 0 mm 3 mps 759 mmHg 82%
    10:00 +16°C° 0 mm 3 mps 759 mmHg 77%
    11:00 +17°C° 0 mm 3 mps 759 mmHg 74%
    12:00 +18°C° 0 mm 3 mps 759 mmHg 72%
    13:00 +18°C° 0 mm 3 mps 758 mmHg 69%
    14:00 +18°C° 0 mm 3 mps 758 mmHg 71%
    15:00 +18°C° 0 mm 3 mps 758 mmHg 73%
    16:00 +17°C° 0 mm 3 mps 758 mmHg 75%
    17:00 +16°C° 0 mm 3 mps 758 mmHg 80%
    18:00 +15°C° 0 mm 2 mps 759 mmHg 85%
    19:00 +13°C° 0 mm 2 mps 759 mmHg 90%
    20:00 +13°C° 0 mm 2 mps 759 mmHg 90%
    21:00 +13°C° 0 mm 2 mps 759 mmHg 90%
    22:00 +13°C° 0 mm 1 mps 759 mmHg 90%
    23:00 +13°C° 0 mm 1 mps 759 mmHg 90%
    Show more